Weather in Borzunovka

Russia / Tomsk District     56°08′13″N   83°32′58″E
temp.,
°C
wind,
m/s
gust,
m/s
humid.,
%
clouds,
%
prec.,
mm/h
press.,
hPa
HPBL,
m
18 may, tue
tue1801:00+13s41179100 0.0 1009214
04:00+13s51190100 0.7 1004265
07:00+14sw31392100 2.1 1002513
10:00+14n5890100 0.2 1004603
13:00+18nnw666784 0.3 10051136
16:00+18n566598 0.1 10061222
19:00+14ne667994 0.1 1006556
22:00+11ne578590 0.1 1008438
19 may, wed
wed1901:00+9ne5883100 0.1 1008432
04:00+8ne51184100 1.0 1007576
07:00+8nne698538 1.0 1008379
10:00+11nne67475 0.0 1010868
13:00+12nne783866 0.0 10111662
16:00+12n883297 0.0 10122499
19:00+10n793426 0.0 10132467
22:00+6nne34465 0.0 101473
20 may, thu
thu2001:00+4n225294 0.0 101431
04:00+3n3855100 0.0 1014210
07:00+4n585699 0.0 1015675
10:00+6n6736100 0.0 10162507
13:00+7n6834100 0.0 10172599
16:00+8n6831100 0.0 10183071
19:00+8n583225 0.0 10182352
22:00+4nw34440 0.0 102050
21 may, fri
fri2101:00+2nw37540 0.0 1021108
04:00+1nw35585 0.0 102279
07:00+3nw355468 0.0 1023132
10:00+9nw343694 0.0 10241129
13:00+12wnw3428100 0.0 10241980
16:00+14w4526100 0.0 10232316
19:00+13w4636100 0.0 10221222
22:00+9sw3744100 0.0 1023138
22 may, sat
sat2201:00+9sw3849100 0.0 1022201
04:00+8sw3858100 0.1 1022259
07:00+8sw51068100 0.4 1021993
10:00+7ssw61177100 1.1 1020665
13:00+6ssw61191100 2.8 1019577
16:00+7ssw5891100 0.0 1019521
19:00+8sw3490100 0.0 1020403
22:00+8ssw1294100 0.0 102042